Regional Weather Roundup
Issued by NWS Grand Forks, ND

Home | Current Version | Previous Version | Graphics & Text | Print | Product List | Glossary On
Versions: 1 2 3 4 5 6 7 8 9 10 11 12 13 14 15 16 17 18 19 20 21 22 23 24 25 26 27 28 29 30 31 32 33 34 35 36 37 38 39 40 41 42 43 44 45 46 47 48 49 50
000
ASUS43 KFGF 210510
RWRFGF
PRAIRIE TO PINES  WEATHER ROUNDUP
NATIONAL WEATHER SERVICE EASTERN NORTH DAKOTA/GRAND FORKS ND
1200 AM CDT TUE OCT 21 2014

 **SATELLITE DATA USED TO AUGMENT SKY COVER AT AUTOMATED STATIONS**
 *****  WEATHER ACROSS EASTERN NORTH DAKOTA  *****

CITY           SKY/WX    TMP DP  RH WIND       PRES   REMARKS
GRAND FORKS    CLEAR     42  37  82 SE8       30.05R
GRAND FRKS AFB CLEAR     41  39  93 S8        30.05R
GRAND FRKS NWS   N/A     43 N/A N/A SE12        N/A
DEVILS LAKE    CLEAR     48  39  71 SE14      29.98S
FARGO          CLEAR     46  36  68 SE8       30.05R
WAHPETON ARPT  CLEAR     41  32  70 SE5       30.06S
$$

 ***** WEATHER ACROSS CENTRAL AND WESTERN NORTH DAKOTA  *****

CITY           SKY/WX    TMP DP  RH WIND       PRES   REMARKS
BISMARCK       CLEAR     53  34  48 E9        29.93F
MINOT          CLEAR     45  35  68 E7        29.88S
JAMESTOWN      CLEAR     48  40  73 SE10      30.00S
MINOT AFB      CLEAR     47  37  68 SE13      29.86F
GARRISON         N/A     46  37  71 E8        29.89F
WILLISTON      CLEAR     58  42  55 S5        29.82R
DICKINSON      CLEAR     52  39  61 SE10      29.85S
HETTINGER      CLEAR     50  38  63 E8        29.88F
$$

 *****  OTHER AIRPORT OBSERVATIONS IN OUR AREA  *****

CITY           SKY/WX    TMP DP  RH WIND       PRES   REMARKS
WALHALLA       FAIR      41  41 100 SE9       30.03S
GRAFTON AIRPOR   N/A     39  37  93 SE8       30.05R
VALLEY CITY AR FAIR      46  43  87 S8        30.02F
CANDO          FAIR      45  41  87 SE9       29.98S
CAVALIER APRT  FAIR      43  37  81 SE7       30.05R
GWINNER        CLEAR     46  37  71 SE8       30.04S
ROLLA          FAIR      45  41  87 S10       29.97S
 ***** THE ABOVE OBSERVATIONS ARE NON NWS ARE NOT QUALITY
       CONTROLLED AND MAY MIS-REPORT RAIN FOR SNOW...
$$

  *****  WEATHER ACROSS NORTHERN MINNESOTA  *****

CITY           SKY/WX    TMP DP  RH WIND       PRES   REMARKS
FLAG ISLAND    CLEAR     43  37  81 SE9G17    30.10S
WARROAD        CLEAR     39  36  87 SE7       30.11R
ROSEAU         CLEAR     39  34  81 SE7       30.10R
HALLOCK        CLEAR     45  37  76 SE9       30.06R
THF RVR FALLS  CLEAR     37  34  87 E8        30.08S
BAUDETTE       CLEAR     35  33  92 E6        30.11S
WASKISH        CLEAR     28  28 100 CALM      30.11S
CROOKSTON      CLEAR     45  37  76 SE12      30.07S
STEPHEN NDAWN    N/A     39  37  93 SE7         N/A
GREENBUSH NDAW   N/A     37  36  93 SE3         N/A
$$
  *****  WEATHER ACROSS CENTRAL AND WEST MINNESOTA  *****

CITY           SKY/WX    TMP DP  RH WIND       PRES   REMARKS
FOSSTON        CLEAR     37  34  87 SE6       30.09S
BEMIDJI        CLEAR     37  36  94 SE5       30.10S
PARK RAPIDS    CLEAR     40  37  89 E3        30.10R
ELBOW LAKE     FAIR      47  39  73 E7        30.06S
WADENA         CLEAR     39  36  87 E5        30.10R
DETROIT LAKES  CLEAR     45  37  76 SE8       30.09R
MOORHEAD       CLEAR     45  39  81 SE6       30.07R
FERGUS FALLS   CLEAR     46  36  66 E5        30.08R
MORRIS MN      CLEAR     43  36  75 E5        30.06S
STAPLES        CLEAR     39  36  87 CALM      30.10S
$$
  *****  WEATHER ELSEWHERE ACROSS MINNESOTA  *****

CITY           SKY/WX    TMP DP  RH WIND       PRES   REMARKS
DULUTH         CLOUDY    45  36  70 NE9       30.11R
INTRNTL FALLS  CLOUDY    43  35  73 E9        30.13S
ELY            CLOUDY    41  34  75 E5        30.14R
CLOQUET        CLOUDY    45  36  70 CALM      30.11S
WHEATON        CLEAR     37  34  87 CALM      30.08S
BRAINERD       CLEAR     35  35 100 CALM      30.11R
HIBBING        CLOUDY    45  34  65 E7        30.12R
ALEXANDRIA     CLEAR     45  38  76 E9        30.09R
SAINT CLOUD    CLEAR     41  36  82 CALM      30.10R
MINNEAPOLIS    CLEAR     45  39  79 NE5       30.09S
$$

  *****  WEATHER ACROSS SOUTH DAKOTA  *****

CITY           SKY/WX    TMP DP  RH WIND       PRES   REMARKS
SIOUX FALLS    CLEAR     41  36  82 N3        30.06S
BROOKINGS      NOT AVBL
WATERTOWN      CLEAR     43  36  76 SE5       30.05S
HURON          CLEAR     48  34  58 SE8       30.01S
SISSETON         N/A     37  35  92 SW3       30.04F
ABERDEEN       CLEAR     44  36  73 SE7       30.01S
MITCHELL       CLEAR     46  36  68 SE6       30.02F
PIERRE         CLEAR     57  37  47 SE14      29.92S
MOBRIDGE       CLEAR     58  35  42 SE17      29.90F
RAPID CITY     CLEAR     54  43  66 SE8       29.89F
$$

  *****  SOME WEATHER IN NEARBY STATES *****

CITY           SKY/WX    TMP DP  RH WIND       PRES   REMARKS
GLASGOW MT     CLEAR     51  37  58 E14       29.73F
GREAT FALLS MT CLEAR     62  33  33 S12       29.70F
CHEYENNE WY    CLEAR     45  34  65 W6        30.09F
SCOTTSBLUFF NE CLEAR     62  38  40 SE8       30.00F
OMAHA NE       CLEAR     47  43  86 CALM      30.07F
DES MOINES IA  CLEAR     52  42  69 CALM      30.05S
DAVENPORT IA   CLEAR     45  38  76 E3        30.04S
CHICAGO IL     CLOUDY    52  42  69 N8        29.99F
EAU CLAIRE WI  CLEAR     41  36  82 NE3       30.07S
LA CROSSE WI   CLEAR     43  40  89 CALM      30.06S
$$

  *****  SOME NATIONAL WEATHER *****

CITY           SKY/WX    TMP DP  RH WIND       PRES   REMARKS
LA GUARDIA NY  CLOUDY    57  44  62 S5        29.96F
RALEIGH NC     CLOUDY    56  50  80 W3        29.98S
ATLANTA GA     CLEAR     61  50  67 NW5       30.02F
NEW ORLEANS LA PTCLDY    65  56  72 CALM      30.01F
OKLAHOMA CITY  PTCLDY    65  60  84 SE5       30.05S
ALBUQUERQUE NM CLOUDY    59  46  62 NE6       30.18S
SALT LAKE CITY PTCLDY    63  40  42 SE13      29.90F
LOS ANGELES CA PTCLDY    67  64  90 CALM      29.90R
BOISE ID       CLOUDY    61  40  45 CALM      29.68F
SEATTLE WA     LGT RAIN  55  53  93 CALM      29.80R
$$

*** WEATHER ACROSS MANITOBA...SASKATCHEWAN AND ONTARIO ***
                ***ONTARIO***

CITY           SKY/WX    TMP DP  RH WIND       PRES   REMARKS
GERALDTON      CLEAR     30  28  93 N5        30.17S
THUNDER BAY    MOCLDY    37  32  81 N5        30.19R
SIOUX LOOKOUT  CLOUDY    36  34  93 SE2       30.18R
TORONTO        CLOUDY    50  48  93 W5        29.78F
BIG TROUT LK   CLOUDY    34  30  86 S8        30.17F
PICKLE LAKE    NOT AVBL
DRYDEN         CLOUDY    39  34  81 SE7       30.15R
KENORA         CLEAR     36  34  93 SE7       30.12S
$$
                *** MANITOBA***

CITY           SKY/WX    TMP DP  RH WIND       PRES   REMARKS
BRANDON        CLEAR     39  37  93 E8        29.94S
DAUPHIN        CLEAR     34  32  93 NW3       29.87S FOG
ISLAND LAKE    CLOUDY    37  34  87 SE12G18   30.06S
PILOT MOUND      N/A     45  39  81 SE14        N/A
THE PAS        CLEAR     43  41  93 SE18      29.75F
THOMPSON       PTCLDY    36  36 100 S10       29.90S
WINNIPEG       CLEAR     43  37  81 SE14      30.04S
LYNN LAKE      CLOUDY    37  36  93 S13G18    29.72F
CHURCHILL      CLOUDY    34  34 100 S17G25    29.95F WCI  23
GILLAM         CLOUDY    37  34  87 S13G23    30.00F
$$
                ***SASKATCHEWAN***

CITY           SKY/WX    TMP DP  RH WIND       PRES   REMARKS
ESTEVAN        NOT AVBL
KINDERSLEY     PTCLDY    46  36  66 S9        29.61F
LLOYDMINSTER   CLEAR     52  34  50 S10       29.52F
PRINCE ALBERT  CLEAR     41  39  93 CALM      29.61F
REGINA         NOT AVBL
YORKTON        CLEAR     52  39  62 SE12G17   29.78S
N. BATTLEFORD  CLEAR     50  36  57 SE13      29.59S
LA RONGE       CLEAR     45  41  87 E6        29.59S
SASKATOON      CLEAR     55  41  58 S12       29.63S
SWIFT CURRENT  CLEAR     54  43  66 S14       29.68F
$$
NOTE: THESE ARE AUTOMATED STATIONS WITH LIMITED QUALITY CONTROL
      "FAIR" INDICATES FEW OR NO CLOUDS BELOW 12,000 FEET WITH NO
      SIGNIFICANT WEATHER AND/OR OBSTRUCTIONS TO VISIBILITY.
      SKY/WX - SKY CONDITION AND SIGNIFICANT WEATHER.
      TMP - AIR TEMPERATURE.    DP   - DEWPOINT TEMPERATURE.
      RH  - RELATIVE HUMIDITY.  PRES - PRESSURE.
      HX  - HEAT INDEX.         WCI  - WIND CHILL INDEX.
$



USA.gov is the U.S. government's official web portal to all federal, state and local government web resources and services.